[[[{"header":{"parameterUnit":"kt","parameterCategory":2,"dx":1,"dy":1,"la1":30.253999710083008,"la2":30.299108505249023,"lo1":-89.0895004272461,"lo2":-89.04439544677734,"nx":28,"ny":28,"refTime":"2022-10-02T21:00:00:Z","depth":0,"parameterNumber":1,"parameterNumberName":"U-component_of_WINDS"},"data":[-4.9683,-4.9786,-4.9768,-4.9877,-4.9878,-4.9949,-4.9968,-4.9991,-5.0003,-5.0085,-5.0128,-5.0119,-5.0123,-5.017,-5.0215,-5.0209,-5.0231,-5.0281,-5.0267,-5.0056,-5.0026,-4.9997,-4.9972,-5.0286,-5.0286,-5.0487,-5.0489,-5.0491,-4.9532,-4.9534,-4.9586,-4.9624,-4.9668,-4.9607,-4.9632,-4.9673,-4.9737,-4.9753,-4.9795,-4.9865,-4.9917,-4.9903,-4.995,-4.9997,-4.9972,-5.0012,-5.0009,-5.001,-4.9785,-4.9758,-5.0032,-5.0032,-5.0032,-5.0032,-5.0032,-5.0031,-4.9251,-4.9314,-4.9325,-4.9381,-4.9394,-4.9419,-4.9475,-4.9462,-4.9512,-4.9559,-4.9524,-4.9597,-4.9609,-4.9654,-4.9665,-4.972,-4.9672,-4.9709,-4.9719,-4.973,-4.9745,-4.9461,-4.9727,-4.9726,-4.9725,-4.9724,-4.9724,0,-4.904,-4.902,-4.9068,-4.9111,-4.915,-4.9181,-4.9206,-4.924,-4.9188,-4.9231,-4.9292,-4.9323,-4.9385,-4.944,-4.9478,-4.9481,-4.9422,-4.9413,-4.9439,-4.9459,-4.9471,-4.9467,-4.9102,-4.9406,-4.9403,-4.9401,-4.94,-4.9399,-4.8758,-4.8832,-4.8834,-4.887,-4.8879,-4.8938,-4.8969,-4.8917,-4.8953,-4.8975,-4.9032,-4.9086,-4.9126,-4.9226,-4.9208,-4.9254,-4.9226,-4.9345,-4.9233,-4.9248,-4.923,-4.9227,-4.9235,-4.9369,-4.9372,-4.9376,-4.9378,0,-4.8601,-4.8568,-4.8677,-4.867,-4.8671,-4.8751,-4.8745,-4.8805,-4.8784,-4.8864,-4.8879,-4.8847,-4.8907,-4.887,-4.8931,-4.8909,-4.9042,-4.9013,-4.9038,-4.9031,-4.9135,-4.9127,-4.9474,-4.9518,-4.919,-4.9193,-4.9196,0,-4.8348,-4.8447,-4.8392,-4.8457,-4.8566,-4.8511,-4.862,-4.8613,-4.8622,-4.8684,-4.861,-4.867,-4.8612,-4.8666,-4.8635,-4.8736,-4.8747,-4.8738,-4.8729,-4.8746,-4.8747,-4.8765,-4.875,-4.8702,-4.8701,-4.8699,-4.8698,0,-4.8107,-4.8193,-4.8298,-4.8312,-4.8315,-4.8365,-4.8368,-4.8377,-4.8408,-4.8441,-4.846,-4.8503,-4.8527,-4.8561,-4.8521,-4.8446,-4.8643,-4.8532,-4.8633,-4.8635,-4.868,-4.8679,-4.8994,-4.8695,-4.8695,-4.8694,-4.8694,0,-4.7898,-4.7933,-4.809,-4.809,-4.8114,-4.8183,-4.8221,-4.8271,-4.8286,-4.827,-4.8296,-4.8243,-4.8327,-4.822,-4.8336,-4.825,-4.8278,-4.8276,-4.8282,-4.8289,-4.8172,-4.8357,-4.866,-4.8691,-4.8294,-4.829,-4.8287,0,-4.7633,-4.7781,-4.7735,-4.7884,-4.7948,-4.7861,-4.7936,-4.7951,-4.7936,-4.7988,-4.7971,-4.803,-4.7942,-4.7955,-4.8017,-4.8002,-4.8113,-4.7986,-4.8062,-4.8066,-4.8063,-4.8341,-4.8396,-4.8597,-4.8244,-4.8249,-4.8252,0,-4.7423,-4.7425,-4.7455,-4.7469,-4.7479,-4.7531,-4.7617,-4.7663,-4.77,-4.7723,-4.7795,-4.7875,-4.7812,-4.7835,-4.7796,-4.7862,-4.8036,-4.7786,-4.7786,-4.7834,-4.8218,-4.8271,-4.8305,-4.7995,-4.8001,-4.8005,-4.8217,0,-4.7118,-4.7187,-4.7265,-4.7298,-4.7332,-4.7423,-4.7383,-4.7423,-4.7382,-4.7365,-4.7467,-4.7469,-4.7516,-4.7543,-4.7503,-4.7667,-4.7634,-4.7567,-4.7461,-4.7643,-4.7712,-4.774,-4.7362,-4.7358,-4.7355,-4.7353,0,0,-4.6874,-4.6972,-4.6918,-4.6999,-4.7024,-4.6933,-4.7034,-4.7047,-4.7078,-4.7098,-4.7038,-4.7153,-4.7157,-4.7286,-4.734,-4.7358,-4.7384,-4.7322,-4.7556,-4.7579,-4.76,-4.7675,-4.7705,-4.7348,-4.7347,-4.7346,-4.7345,0,-4.6755,-4.676,-4.686,-4.6872,-4.6887,-4.6863,-4.6887,-4.6887,-4.688,-4.698,-4.6903,-4.696,-4.7052,-4.7067,-4.7087,-4.7305,-4.7244,-4.7322,-4.7453,-4.7529,-4.7556,-4.7579,-4.7658,-4.7687,-4.7338,-4.7339,-4.7339,0,-4.6542,-4.6542,-4.6585,-4.6638,-4.6647,-4.6714,-4.6593,-4.6668,-4.6717,-4.6613,-4.6713,-4.6709,-4.6725,-4.6851,-4.6907,-4.6854,-4.712,-4.7028,-4.7045,-4.7051,-4.7122,-4.7154,-4.7183,-4.6808,-4.6806,-4.6804,0,0,-4.6445,-4.6508,-4.6491,-4.6609,-4.662,-4.6586,-4.6617,-4.6579,-4.6595,-4.6602,-4.6594,-4.6613,-4.6665,-4.6702,-4.6749,-4.6894,-4.6894,-4.6964,-4.6989,-4.701,-4.7027,-4.7104,-4.7136,-4.6798,-4.6798,-4.6798,0,0,-4.6398,-4.6383,-4.6338,-4.647,-4.6488,-4.6479,-4.6553,-4.6499,-4.6537,-4.6522,-4.6462,-4.6464,-4.6581,-4.658,-4.65,-4.6711,-4.6608,-4.6626,-4.6708,-4.6739,-4.6764,-4.6763,-4.6377,0,0,0,0,0,-4.6255,-4.6384,-4.6344,-4.636,-4.6426,-4.6501,-4.6509,-4.6462,-4.639,-4.645,-4.6435,-4.6368,-4.6524,-4.6452,-4.6469,-4.6559,-4.6716,-4.6731,-4.6744,-4.6885,-4.6917,-4.6945,0,0,0,0,0,0,-4.6261,-4.6281,-4.6341,-4.6338,-4.6352,-4.6496,-4.6364,-4.6354,-4.6383,-4.6368,-4.6373,-4.6368,-4.6329,-4.644,-4.6456,-4.6543,-4.6371,-4.6722,-4.6734,-4.6745,-4.6896,-4.6923,-4.6946,0,0,0,0,0,-4.6265,-4.6281,-4.6399,-4.6336,-4.6348,-4.6316,-4.6358,-4.6349,-4.637,-4.6348,-4.6341,-4.6332,-4.6333,-4.6343,-4.6449,-4.6537,-4.636,-4.6366,-4.673,-4.674,-4.6748,-4.6909,0,0,0,0,0,0,-4.6269,-4.6274,-4.64,-4.6402,-4.6283,-4.6307,-4.6309,-4.6346,-4.6347,-4.6342,-4.6304,-4.6293,-4.6337,-4.6344,-4.6352,-4.6538,-4.635,-4.6357,-4.6361,-4.6737,-4.6745,-4.6752,0,0,0,0,0,0,-4.6265,-4.6276,-4.6401,-4.6338,-4.6332,-4.6299,-4.6301,-4.6384,-4.6348,-4.6303,-4.6293,-4.6299,-4.6325,-4.6346,-4.6352,-4.6483,-4.6343,-4.6349,-4.6353,-4.6356,-4.6743,-4.6749,0,0,0,0,0,0,-4.6269,-4.6278,-4.6337,-4.6333,-4.6327,-4.6346,-4.6371,-4.6441,-4.6294,-4.6304,-4.628,-4.6273,-4.6328,-4.6333,-4.6352,-4.6481,-4.6483,-4.6344,-4.6348,-4.6351,-4.6352,0,0,0,0,0,0,0,-4.6272,-4.6218,-4.6389,-4.6328,-4.6323,-4.6421,-4.6421,-4.6422,-4.6293,-4.6287,-4.6281,-4.6276,-4.6309,-4.6316,-4.6322,-4.648,0,0,-4.6343,-4.6346,0,0,0,0,0,0,0,0,-4.6213,-4.6217,-4.6389,-4.6389,-4.6389,-4.6421,-4.6421,-4.6422,-4.6292,-4.6287,-4.6282,-4.6278,-4.6311,-4.6316,-4.6322,0,0,0,0,0,0,0,0,0,0,0,0,0,0,0,-4.6389,-4.6389,0,-4.6421,-4.6421,-4.6422,-4.6291,-4.6287,-4.6283,-4.628,-4.6313,-4.6317,-4.6321,0,0,0,0,0,0,0,0,0,0,0,0,0,0,0,0,0,0,0,0,0,0,0,0,0,0,0,0,0,0,0,0,0,0,0,0,0,0,0,0,0,0,0,0,0,0,0,0,0,0,0,0,0,0,0,0,0,0,0,0,0,0,0,0,0,0,0,0,0]}],[{"header":{"parameterUnit":"kt","parameterCategory":2,"dx":1,"dy":1,"la1":30.253999710083008,"la2":30.299108505249023,"lo1":-89.0895004272461,"lo2":-89.04439544677734,"nx":28,"ny":28,"refTime":"2022-10-02T21:00:00:Z","depth":0,"parameterNumber":2,"parameterNumberName":"V-component_of_WINDS"},"data":[-8.0177,-8.0253,-8.0249,-8.0333,-8.0343,-8.0399,-8.0418,-8.044,-8.0456,-8.0521,-8.0557,-8.0558,-8.057,-8.0609,-8.0646,-8.0645,-8.0661,-8.0692,-8.0686,-8.0554,-8.0535,-8.0517,-8.05,-8.0696,-8.0696,-8.0824,-8.0825,-8.0826,-8.0081,-8.0093,-8.0136,-8.0175,-8.0212,-8.0179,-8.0206,-8.0238,-8.0289,-8.0309,-8.0344,-8.0399,-8.0441,-8.0442,-8.0481,-8.0514,-8.05,-8.0525,-8.0523,-8.0525,-8.0384,-8.0365,-8.0536,-8.0536,-8.0536,-8.0536,-8.0536,-8.0536,-7.9906,-7.9952,-7.9973,-8.0019,-8.0037,-8.0063,-8.0105,-8.0106,-8.0146,-8.0188,-8.0172,-8.0228,-8.0246,-8.0289,-8.0301,-8.0343,-8.0313,-8.0338,-8.0344,-8.0351,-8.036,-8.0178,-8.0349,-8.0348,-8.0348,-8.0347,-8.0347,0,-7.9776,-7.9769,-7.981,-7.985,-7.9884,-7.9913,-7.9939,-7.9965,-7.9945,-7.9979,-8.0028,-8.0054,-8.0106,-8.0149,-8.0183,-8.0191,-8.0158,-8.0154,-8.0171,-8.018,-8.0184,-8.0184,-7.9954,-8.0149,-8.0147,-8.0146,-8.0145,-8.0144,-7.9599,-7.9653,-7.9672,-7.9701,-7.9714,-7.9761,-7.9788,-7.9767,-7.9796,-7.9823,-7.9863,-7.9907,-7.994,-8.0017,-8.0014,-8.0052,-8.0036,-8.0112,-8.0041,-8.0048,-8.0038,-8.0035,-8.004,-8.0126,-8.0128,-8.013,-8.0132,0,-7.9499,-7.9491,-7.9572,-7.9585,-7.959,-7.9646,-7.9656,-7.97,-7.9695,-7.9754,-7.9766,-7.9758,-7.9805,-7.979,-7.9839,-7.983,-7.9921,-7.9904,-7.9915,-7.9911,-7.9977,-7.9972,-8.0194,-8.0222,-8.0018,-8.002,-8.0022,0,-7.9345,-7.9416,-7.9399,-7.9447,-7.9524,-7.9502,-7.9578,-7.9582,-7.9597,-7.9643,-7.9605,-7.9649,-7.9623,-7.9664,-7.965,-7.9721,-7.973,-7.9727,-7.9723,-7.9731,-7.9732,-7.9745,-7.9736,-7.971,-7.9709,-7.9708,-7.9707,0,-7.9191,-7.9265,-7.9342,-7.9357,-7.9377,-7.9413,-7.9422,-7.9439,-7.9464,-7.9495,-7.9511,-7.9547,-7.9568,-7.9596,-7.9578,-7.9531,-7.9665,-7.9596,-7.9662,-7.9662,-7.9692,-7.9691,-7.9891,-7.9706,-7.9705,-7.9705,-7.9704,0,-7.9065,-7.9099,-7.9212,-7.9228,-7.9247,-7.9297,-7.9333,-7.9373,-7.9392,-7.9387,-7.9411,-7.9383,-7.9444,-7.9377,-7.9461,-7.9405,-7.9426,-7.9429,-7.9433,-7.9438,-7.9364,-7.948,-7.9673,-7.9692,-7.9442,-7.944,-7.9438,0,-7.8892,-7.9003,-7.8985,-7.9092,-7.9142,-7.9096,-7.9151,-7.917,-7.9168,-7.9208,-7.9204,-7.925,-7.9197,-7.9209,-7.9252,-7.925,-7.9322,-7.9239,-7.9296,-7.9298,-7.9293,-7.947,-7.9503,-7.9632,-7.941,-7.9413,-7.9415,0,-7.8756,-7.8781,-7.8801,-7.8818,-7.884,-7.888,-7.8943,-7.8984,-7.9012,-7.9037,-7.9088,-7.9151,-7.9114,-7.9134,-7.9114,-7.916,-7.9272,-7.9113,-7.9113,-7.9143,-7.9394,-7.9425,-7.9447,-7.9249,-7.9252,-7.9255,-7.9392,0,-7.8569,-7.8623,-7.8678,-7.8715,-7.8744,-7.881,-7.8796,-7.8828,-7.8807,-7.8803,-7.8878,-7.8888,-7.8928,-7.8948,-7.8927,-7.9037,-7.9016,-7.8976,-7.891,-7.9026,-7.907,-7.9089,-7.8844,-7.8842,-7.884,-7.8839,0,0,-7.8405,-7.8483,-7.846,-7.8521,-7.8545,-7.8496,-7.8568,-7.8584,-7.8618,-7.8634,-7.8597,-7.8688,-7.8697,-7.8789,-7.8824,-7.884,-7.8858,-7.8818,-7.897,-7.8985,-7.8999,-7.9047,-7.9066,-7.8836,-7.8835,-7.8835,-7.8834,0,-7.8335,-7.8349,-7.8421,-7.8437,-7.8461,-7.8453,-7.8471,-7.8484,-7.8485,-7.8558,-7.8516,-7.8558,-7.863,-7.8647,-7.8664,-7.8806,-7.8771,-7.8819,-7.8902,-7.8954,-7.8971,-7.8986,-7.9037,-7.9055,-7.883,-7.883,-7.883,0,-7.8199,-7.8211,-7.8244,-7.8295,-7.8309,-7.836,-7.8288,-7.8345,-7.8382,-7.8324,-7.8397,-7.8401,-7.842,-7.8509,-7.8548,-7.8515,-7.8693,-7.8634,-7.8644,-7.8648,-7.8698,-7.8718,-7.8736,-7.8496,-7.8495,-7.8494,0,0,-7.8139,-7.819,-7.8194,-7.8278,-7.8291,-7.8281,-7.8306,-7.8288,-7.8308,-7.8316,-7.832,-7.8339,-7.8381,-7.8409,-7.8447,-7.8546,-7.8548,-7.8593,-7.8609,-7.8622,-7.8633,-7.8686,-7.8706,-7.849,-7.849,-7.849,0,0,-7.811,-7.812,-7.8096,-7.8192,-7.8214,-7.8222,-7.8273,-7.8244,-7.8277,-7.8267,-7.8238,-7.8242,-7.8324,-7.8329,-7.8276,-7.8423,-7.8358,-7.837,-7.8417,-7.8437,-7.8452,-7.8449,-7.8202,0,0,0,0,0,-7.8031,-7.8119,-7.8097,-7.8111,-7.8174,-7.8235,-7.8242,-7.8221,-7.8176,-7.8217,-7.8215,-7.8176,-7.8294,-7.8247,-7.826,-7.8319,-7.8437,-7.8446,-7.8455,-7.8539,-7.856,-7.8577,0,0,0,0,0,0,-7.8036,-7.8053,-7.8095,-7.8108,-7.8122,-7.8231,-7.815,-7.8147,-7.8171,-7.8163,-7.8177,-7.8176,-7.8158,-7.8238,-7.825,-7.8307,-7.8198,-7.8441,-7.8449,-7.8456,-7.8546,-7.8563,-7.8578,0,0,0,0,0,-7.804,-7.8054,-7.8161,-7.8107,-7.8119,-7.8112,-7.8147,-7.8143,-7.8162,-7.8159,-7.8156,-7.8144,-7.816,-7.8169,-7.8245,-7.8302,-7.8189,-7.8194,-7.8446,-7.8452,-7.8458,-7.8554,0,0,0,0,0,0,-7.8043,-7.805,-7.8163,-7.8166,-7.8072,-7.8105,-7.811,-7.814,-7.8155,-7.8154,-7.8123,-7.8116,-7.8163,-7.8169,-7.8176,-7.8302,-7.8182,-7.8187,-7.819,-7.8451,-7.8455,-7.846,0,0,0,0,0,0,-7.8043,-7.8053,-7.8164,-7.8122,-7.8119,-7.8099,-7.8104,-7.8164,-7.8156,-7.8118,-7.8113,-7.812,-7.8152,-7.817,-7.8175,-7.8271,-7.8177,-7.8181,-7.8184,-7.8186,-7.8455,-7.8458,0,0,0,0,0,0,-7.8047,-7.8056,-7.8121,-7.8119,-7.8117,-7.8146,-7.8152,-7.8218,-7.8122,-7.8118,-7.8112,-7.8108,-7.8153,-7.8158,-7.8175,-7.8269,-7.827,-7.8177,-7.818,-7.8182,-7.8183,0,0,0,0,0,0,0,-7.805,-7.7996,-7.8146,-7.8117,-7.8115,-7.8192,-7.8192,-7.8193,-7.8121,-7.8117,-7.8113,-7.811,-7.8151,-7.8156,-7.8161,-7.8267,0,0,-7.8176,-7.8178,0,0,0,0,0,0,0,0,-7.7991,-7.7995,-7.8147,-7.8147,-7.8148,-7.8192,-7.8192,-7.8193,-7.812,-7.8117,-7.8114,-7.8111,-7.8152,-7.8156,-7.816,0,0,0,0,0,0,0,0,0,0,0,0,0,0,0,-7.8147,-7.8147,0,-7.8192,-7.8192,-7.8193,-7.812,-7.8117,-7.8115,-7.8112,-7.8153,-7.8156,-7.816,0,0,0,0,0,0,0,0,0,0,0,0,0,0,0,0,0,0,0,0,0,0,0,0,0,0,0,0,0,0,0,0,0,0,0,0,0,0,0,0,0,0,0,0,0,0,0,0,0,0,0,0,0,0,0,0,0,0,0,0,0,0,0,0,0,0,0,0,0]}]]]